| time (UTC) | temp F | wind direction | speed MPH | gust MPH | rain 1hr in | rain 24hr in | rain mn in | humidity % | barometer mb |
| 20260906060008 | 70 | 328 | 0.0 | 1.0 | 0.00 | 0.43 | 0.00 | 95 | 1012.2 |
| 20260906054509 | 70 | 328 | 0.0 | 3.0 | 0.00 | 0.43 | 0.00 | 95 | 1012.5 |
| 20260906053018 | 70 | 347 | 0.0 | 5.0 | 0.00 | 0.43 | 0.00 | 95 | 1012.5 |
| 20260906051508 | 70 | 352 | 2.0 | 4.0 | 0.00 | 0.43 | 0.00 | 96 | 1012.7 |
| 20260906050004 | 70 | 347 | 1.0 | 3.0 | 0.00 | 0.43 | 0.00 | 95 | 1012.6 |
| 20260906044509 | 70 | 349 | 2.0 | 4.0 | 0.00 | 0.43 | 0.00 | 95 | 1012.7 |
| 20260906043017 | 70 | 332 | 0.0 | 3.0 | 0.00 | 0.43 | 0.00 | 95 | 1013.1 |
| 20260906041533 | 70 | 342 | 1.0 | 3.0 | 0.00 | 0.43 | 0.00 | 95 | 1013.0 |
| 20260906040013 | 70 | 345 | 2.0 | 4.0 | 0.00 | 0.43 | 0.00 | 95 | 1013.0 |
| 20260906034512 | 70 | 350 | 2.0 | 6.0 | 0.00 | 0.43 | 0.43 | 95 | 1013.0 |
| 20260906033007 | 70 | 352 | 1.0 | 4.0 | 0.00 | 0.43 | 0.43 | 94 | 1013.0 |
| 20260906031522 | 70 | 360 | 0.0 | 2.0 | 0.00 | 0.43 | 0.43 | 94 | 1012.9 |
| 20260906030032 | 70 | 360 | 0.0 | 2.0 | 0.00 | 0.43 | 0.43 | 94 | 1012.8 |
| 20260906024527 | 70 | 28 | 0.0 | 3.0 | 0.00 | 0.43 | 0.43 | 95 | 1012.7 |
| 20260906023007 | 71 | 5 | 1.0 | 4.0 | 0.00 | 0.43 | 0.43 | 95 | 1013.0 |
| 20260906021516 | 71 | 333 | 2.0 | 5.0 | 0.00 | 0.43 | 0.43 | 94 | 1012.9 |
| 20260906020008 | 71 | 347 | 0.0 | 0.0 | 0.00 | 0.43 | 0.43 | 95 | 1012.9 |
| 20260906014542 | 71 | 360 | 0.0 | 0.0 | 0.00 | 0.43 | 0.43 | 94 | 1012.5 |
| 20260906013032 | 72 | 5 | 0.0 | 0.0 | 0.00 | 0.43 | 0.43 | 94 | 1012.3 |
| 20260906011512 | 72 | 33 | 0.0 | 0.0 | 0.00 | 0.43 | 0.43 | 94 | 1012.2 |
| 20260906010008 | 72 | 22 | 0.0 | 0.0 | 0.00 | 0.43 | 0.43 | 94 | 1012.2 |
| 20260906004503 | 73 | 352 | 0.0 | 0.0 | 0.00 | 0.43 | 0.43 | 94 | 1011.9 |
| 20260906003005 | 73 | 352 | 0.0 | 0.0 | 0.01 | 0.43 | 0.43 | 94 | 1011.8 |
| 20260906001507 | 73 | 349 | 0.0 | 0.0 | 0.02 | 0.43 | 0.43 | 94 | 1011.5 |
| 20260906000008 | 74 | 360 | 0.0 | 2.0 | 0.03 | 0.43 | 0.43 | 94 | 1011.6 |
| 20260905234503 | 74 | 360 | 0.0 | 2.0 | 0.03 | 0.43 | 0.43 | 93 | 1011.7 |
| 20260905233004 | 74 | 97 | 0.0 | 1.0 | 0.02 | 0.42 | 0.42 | 92 | 1011.7 |
| 20260905231503 | 75 | 91 | 0.0 | 2.0 | 0.01 | 0.41 | 0.41 | 90 | 1011.9 |
| 20260905230012 | 76 | 84 | 0.0 | 3.0 | 0.00 | 0.40 | 0.40 | 89 | 1011.8 |
| 20260905224519 | 76 | 166 | 1.0 | 6.0 | 0.00 | 0.40 | 0.40 | 88 | 1011.5 |
| 20260905223013 | 76 | 159 | 2.0 | 5.0 | 0.00 | 0.40 | 0.40 | 86 | 1011.6 |
| 20260905221507 | 76 | 173 | 4.0 | 6.0 | 0.00 | 0.40 | 0.40 | 86 | 1011.4 |
| 20260905220004 | 76 | 174 | 2.0 | 5.0 | 0.00 | 0.40 | 0.40 | 86 | 1011.4 |
| 20260905214504 | 77 | 176 | 0.0 | 0.0 | 0.00 | 0.40 | 0.40 | 86 | 1011.2 |
| 20260905213023 | 77 | 176 | 0.0 | 0.0 | 0.00 | 0.42 | 0.40 | 84 | 1011.2 |
| 20260905211523 | 78 | 176 | 0.0 | 1.0 | 0.00 | 0.42 | 0.40 | 83 | 1011.2 |
| 20260905210006 | 78 | 194 | 0.0 | 1.0 | 0.00 | 0.42 | 0.40 | 83 | 1011.0 |
| 20260905204518 | 78 | 186 | 1.0 | 4.0 | 0.00 | 0.42 | 0.40 | 82 | 1011.0 |
| 20260905203007 | 77 | 139 | 0.0 | 4.0 | 0.00 | 0.42 | 0.40 | 83 | 1011.1 |
| 20260905201506 | 76 | 166 | 2.0 | 5.0 | 0.00 | 0.42 | 0.40 | 83 | 1011.1 |
| 20260905200011 | 75 | 174 | 3.0 | 8.0 | 0.00 | 0.42 | 0.40 | 87 | 1011.3 |
| 20260905194514 | 74 | 158 | 3.0 | 9.0 | 0.00 | 0.42 | 0.40 | 88 | 1011.3 |
| 20260905193023 | 73 | 173 | 7.0 | 13.0 | 0.00 | 0.42 | 0.40 | 90 | 1011.7 |
| 20260905191523 | 72 | 168 | 4.0 | 12.0 | 0.00 | 0.42 | 0.40 | 92 | 1011.9 |
| 20260905190003 | 72 | 140 | 7.0 | 12.0 | 0.00 | 0.42 | 0.40 | 91 | 1012.1 |
| 20260905184503 | 72 | 168 | 7.0 | 12.0 | 0.00 | 0.42 | 0.40 | 92 | 1012.2 |
| 20260905183003 | 72 | 126 | 1.0 | 7.0 | 0.00 | 0.42 | 0.40 | 93 | 1012.3 |
| 20260905181504 | 73 | 148 | 6.0 | 9.0 | 0.00 | 0.42 | 0.40 | 93 | 1012.2 |
| 20260905180003 | 73 | 167 | 5.0 | 10.0 | 0.00 | 0.42 | 0.40 | 93 | 1012.4 |
| 20260905174503 | 71 | 158 | 5.0 | 8.0 | 0.00 | 0.42 | 0.40 | 95 | 1012.1 |
| 20260905173003 | 71 | 317 | 4.0 | 11.0 | 0.03 | 0.42 | 0.40 | 95 | 1010.4 |
| 20260905171504 | 70 | 333 | 1.0 | 3.0 | 0.06 | 0.42 | 0.40 | 95 | 1010.9 |
| 20260905170004 | 70 | 33 | 0.0 | 3.0 | 0.29 | 0.42 | 0.40 | 95 | 1011.9 |
| 20260905164504 | 69 | 5 | 1.0 | 5.0 | 0.39 | 0.42 | 0.40 | 93 | 1012.0 |
| 20260905163003 | 69 | 69 | 1.0 | 8.0 | 0.37 | 0.39 | 0.37 | 92 | 1012.9 |
| 20260905161505 | 70 | 66 | 5.0 | 11.0 | 0.34 | 0.36 | 0.34 | 91 | 1013.5 |
| 20260905160003 | 74 | 55 | 2.0 | 16.0 | 0.11 | 0.13 | 0.11 | 87 | 1014.8 |
| 20260905154503 | 76 | 344 | 1.0 | 3.0 | 0.01 | 0.03 | 0.01 | 87 | 1013.3 |
| 20260905153009 | 77 | 350 | 2.0 | 6.0 | 0.00 | 0.02 | 0.00 | 86 | 1013.0 |
| 20260905151503 | 77 | 300 | 0.0 | 5.0 | 0.00 | 0.02 | 0.00 | 85 | 1012.9 |
| 20260905150010 | 77 | 352 | 3.0 | 7.0 | 0.00 | 0.02 | 0.00 | 85 | 1013.0 |
| 20260905144508 | 77 | 316 | 1.0 | 5.0 | 0.00 | 0.02 | 0.00 | 86 | 1012.9 |
| 20260905143004 | 76 | 325 | 2.0 | 5.0 | 0.00 | 0.02 | 0.00 | 87 | 1013.0 |
| 20260905141508 | 76 | 9 | 2.0 | 5.0 | 0.00 | 0.02 | 0.00 | 88 | 1013.0 |
| 20260905140005 | 75 | 318 | 1.0 | 3.0 | 0.00 | 0.02 | 0.00 | 89 | 1013.0 |
| 20260905134504 | 75 | 296 | 2.0 | 5.0 | 0.00 | 0.02 | 0.00 | 88 | 1012.7 |
| 20260905133003 | 74 | 342 | 1.0 | 3.0 | 0.00 | 0.02 | 0.00 | 90 | 1012.5 |
| 20260905131504 | 74 | 335 | 1.0 | 3.0 | 0.00 | 0.02 | 0.00 | 89 | 1012.4 |
| 20260905130004 | 73 | 318 | 1.0 | 2.0 | 0.00 | 0.02 | 0.00 | 89 | 1012.5 |
| 20260905124512 | 73 | 318 | 0.0 | 3.0 | 0.00 | 0.02 | 0.00 | 91 | 1012.4 |
| 20260905123003 | 72 | 352 | 0.0 | 3.0 | 0.00 | 0.02 | 0.00 | 93 | 1012.2 |
| 20260905121505 | 72 | 352 | 0.0 | 1.0 | 0.00 | 0.02 | 0.00 | 93 | 1012.1 |
| 20260905120007 | 71 | 352 | 0.0 | 2.0 | 0.00 | 0.02 | 0.00 | 93 | 1012.1 |
| 20260905114508 | 70 | 352 | 0.0 | 1.0 | 0.00 | 0.02 | 0.00 | 94 | 1012.1 |
| 20260905113004 | 70 | 352 | 0.0 | 2.0 | 0.00 | 0.02 | 0.00 | 95 | 1011.7 |
| 20260905111512 | 69 | 352 | 0.0 | 0.0 | 0.00 | 0.02 | 0.00 | 95 | 1011.8 |
| 20260905110009 | 69 | 352 | 0.0 | 0.0 | 0.00 | 0.02 | 0.00 | 95 | 1011.5 |
| 20260905104513 | 69 | 352 | 0.0 | 0.0 | 0.00 | 0.02 | 0.00 | 95 | 1011.1 |
| 20260905103014 | 70 | 352 | 0.0 | 0.0 | 0.00 | 0.02 | 0.00 | 95 | 1011.1 |
| 20260905101514 | 70 | 352 | 0.0 | 0.0 | 0.00 | 0.02 | 0.00 | 95 | 1011.2 |
| 20260905100012 | 70 | 352 | 0.0 | 0.0 | 0.00 | 0.02 | 0.00 | 94 | 1011.0 |
| 20260905094503 | 70 | 352 | 0.0 | 0.0 | 0.00 | 0.02 | 0.00 | 95 | 1010.8 |
| 20260905093004 | 70 | 352 | 0.0 | 0.0 | 0.00 | 0.02 | 0.00 | 94 | 1010.8 |
| 20260905091503 | 70 | 352 | 0.0 | 2.0 | 0.00 | 0.02 | 0.00 | 95 | 1010.9 |
| 20260905090005 | 70 | 352 | 0.0 | 2.0 | 0.00 | 0.02 | 0.00 | 95 | 1011.0 |
| 20260905084503 | 70 | 352 | 0.0 | 0.0 | 0.00 | 0.02 | 0.00 | 95 | 1011.0 |
| 20260905083006 | 70 | 352 | 0.0 | 2.0 | 0.00 | 0.02 | 0.00 | 95 | 1011.3 |
| 20260905081503 | 70 | 352 | 0.0 | 3.0 | 0.00 | 0.02 | 0.00 | 95 | 1011.3 |
| 20260905080004 | 70 | 352 | 0.0 | 0.0 | 0.00 | 0.02 | 0.00 | 94 | 1011.4 |
| 20260905074504 | 70 | 352 | 0.0 | 2.0 | 0.00 | 0.02 | 0.00 | 94 | 1011.6 |
| 20260905073012 | 70 | 352 | 1.0 | 2.0 | 0.00 | 0.02 | 0.00 | 94 | 1011.6 |
| 20260905071503 | 71 | 352 | 0.0 | 0.0 | 0.00 | 0.02 | 0.00 | 93 | 1011.6 |
| 20260905070005 | 71 | 352 | 0.0 | 2.0 | 0.00 | 0.02 | 0.00 | 93 | 1011.7 |
| 20260905064510 | 72 | 360 | 0.0 | 2.0 | 0.00 | 0.02 | 0.00 | 93 | 1012.0 |
| 20260905063012 | 72 | 147 | 0.0 | 3.0 | 0.00 | 0.02 | 0.00 | 93 | 1012.3 |
| 20260905061517 | 72 | 263 | 0.0 | 6.0 | 0.00 | 0.02 | 0.00 | 92 | 1012.5 |